| time (UTC) | temp F | wind direction | speed knots | gust knots | rain 1hr in | rain 24hr in | rain mn in | humidity % | barometer mb |
| 20260503225100 | 61 | 243 | 10.4 | 20.9 | 0.00 | 0.00 | 0.00 | 44 | 1011.8 |
| 20260503225051 | 61 | 234 | 3.5 | 6.1 | 0.00 | 0.00 | 0.00 | 44 | 1010.1 |
| 20260503224558 | 61 | 223 | 8.7 | 20.9 | 0.00 | 0.00 | 0.00 | 45 | 1011.8 |
| 20260503224100 | 61 | 234 | 8.7 | 18.2 | 0.00 | 0.00 | 0.00 | 45 | 1011.9 |
| 20260503224051 | 61 | 238 | 2.6 | 7.8 | 0.00 | 0.00 | 0.00 | 45 | 1010.1 |
| 20260503223600 | 61 | 209 | 9.6 | 18.2 | 0.00 | 0.00 | 0.00 | 45 | 1011.9 |
| 20260503223551 | 61 | 205 | 0.0 | 7.0 | 0.00 | 0.00 | 0.00 | 45 | 1010.1 |
| 20260503223100 | 61 | 260 | 10.4 | 17.4 | 0.00 | 0.00 | 0.00 | 45 | 1011.9 |
| 20260503223050 | 61 | 217 | 2.6 | 7.0 | 0.00 | 0.00 | 0.00 | 45 | 1010.2 |
| 20260503222559 | 61 | 232 | 7.8 | 20.9 | 0.00 | 0.00 | 0.00 | 45 | 1011.9 |
| 20260503222550 | 61 | 236 | 2.6 | 6.1 | 0.00 | 0.00 | 0.00 | 46 | 1010.1 |
| 20260503222100 | 61 | 246 | 6.1 | 20.9 | 0.00 | 0.00 | 0.00 | 45 | 1011.9 |
| 20260503222051 | 61 | 242 | 2.6 | 7.0 | 0.00 | 0.00 | 0.00 | 45 | 1010.1 |
| 20260503221558 | 61 | 217 | 10.4 | 19.1 | 0.00 | 0.00 | 0.00 | 44 | 1011.8 |
| 20260503221550 | 61 | 245 | 2.6 | 7.0 | 0.00 | 0.00 | 0.00 | 45 | 1010.2 |
| 20260503221059 | 61 | 205 | 8.7 | 25.2 | 0.00 | 0.00 | 0.00 | 45 | 1011.9 |
| 20260503221049 | 61 | 189 | 1.7 | 7.0 | 0.00 | 0.00 | 0.00 | 46 | 1010.2 |
| 20260503220602 | 62 | 209 | 12.2 | 25.2 | 0.00 | 0.00 | 0.00 | 43 | 1012.0 |
| 20260503220549 | 62 | 235 | 3.5 | 7.0 | 0.00 | 0.00 | 0.00 | 43 | 1010.2 |
| 20260503220105 | 62 | 207 | 8.7 | 26.9 | 0.00 | 0.00 | 0.00 | 44 | 1011.8 |
| 20260503220049 | 62 | 220 | 2.6 | 7.0 | 0.00 | 0.00 | 0.00 | 44 | 1010.2 |
| 20260503215558 | 62 | 215 | 11.3 | 26.9 | 0.00 | 0.00 | 0.00 | 43 | 1011.9 |
| 20260503215549 | 62 | 226 | 2.6 | 7.0 | 0.00 | 0.00 | 0.00 | 44 | 1010.3 |
| 20260503215100 | 63 | 216 | 7.8 | 20.0 | 0.00 | 0.00 | 0.00 | 43 | 1011.9 |
| 20260503215047 | 63 | 227 | 2.6 | 7.8 | 0.00 | 0.00 | 0.00 | 42 | 1010.3 |
| 20260503214602 | 63 | 242 | 9.6 | 20.0 | 0.00 | 0.00 | 0.00 | 43 | 1012.0 |
| 20260503214549 | 63 | 236 | 1.7 | 7.8 | 0.00 | 0.00 | 0.00 | 44 | 1010.3 |
| 20260503214104 | 62 | 219 | 8.7 | 20.0 | 0.00 | 0.00 | 0.00 | 42 | 1012.1 |
| 20260503214047 | 62 | 243 | 1.7 | 7.0 | 0.00 | 0.00 | 0.00 | 42 | 1010.2 |
| 20260503213603 | 62 | 235 | 10.4 | 20.0 | 0.00 | 0.00 | 0.00 | 40 | 1012.1 |
| 20260503213547 | 62 | 224 | 2.6 | 6.1 | 0.00 | 0.00 | 0.00 | 41 | 1010.4 |
| 20260503213112 | 63 | 237 | 11.3 | 22.6 | 0.00 | 0.00 | 0.00 | 41 | 1012.0 |
| 20260503213049 | 62 | 238 | 0.9 | 6.1 | 0.00 | 0.00 | 0.00 | 42 | 1010.3 |
| 20260503212600 | 63 | 240 | 13.0 | 22.6 | 0.00 | 0.00 | 0.00 | 41 | 1012.1 |
| 20260503212547 | 63 | 205 | 3.5 | 8.7 | 0.00 | 0.00 | 0.00 | 42 | 1010.3 |
| 20260503212058 | 63 | 228 | 12.2 | 23.5 | 0.00 | 0.00 | 0.00 | 43 | 1012.1 |
| 20260503212047 | 63 | 238 | 4.3 | 8.7 | 0.00 | 0.00 | 0.00 | 43 | 1010.3 |
| 20260503211604 | 63 | 242 | 0.0 | 7.8 | 0.00 | 0.00 | 0.00 | 44 | 1010.4 |
| 20260503211600 | 63 | 223 | 8.7 | 23.5 | 0.00 | 0.00 | 0.00 | 43 | 1012.2 |
| 20260503211100 | 63 | 215 | 12.2 | 23.5 | 0.00 | 0.00 | 0.00 | 40 | 1012.2 |
| 20260503211046 | 63 | 196 | 3.5 | 8.7 | 0.00 | 0.00 | 0.00 | 40 | 1010.4 |
| 20260503210600 | 63 | 232 | 7.8 | 22.6 | 0.00 | 0.00 | 0.00 | 41 | 1012.1 |
| 20260503210547 | 63 | 246 | 1.7 | 7.8 | 0.00 | 0.00 | 0.00 | 41 | 1010.5 |
| 20260503210104 | 63 | 219 | 12.2 | 31.3 | 0.00 | 0.00 | 0.00 | 42 | 1012.1 |
| 20260503210046 | 63 | 232 | 3.5 | 7.8 | 0.00 | 0.00 | 0.00 | 42 | 1010.4 |
| 20260503205600 | 63 | 220 | 10.4 | 31.3 | 0.00 | 0.00 | 0.00 | 41 | 1012.2 |
| 20260503205545 | 63 | 228 | 3.5 | 7.8 | 0.00 | 0.00 | 0.00 | 42 | 1010.5 |
| 20260503205103 | 63 | 244 | 11.3 | 31.3 | 0.00 | 0.00 | 0.00 | 41 | 1012.2 |
| 20260503205045 | 63 | 240 | 2.6 | 9.6 | 0.00 | 0.00 | 0.00 | 41 | 1010.4 |
| 20260503204608 | 63 | 213 | 11.3 | 22.6 | 0.00 | 0.00 | 0.00 | 42 | 1012.2 |
| 20260503204545 | 63 | 238 | 4.3 | 9.6 | 0.00 | 0.00 | 0.00 | 40 | 1010.5 |
| 20260503204102 | 63 | 210 | 12.2 | 23.5 | 0.00 | 0.00 | 0.00 | 42 | 1012.1 |
| 20260503204044 | 63 | 238 | 2.6 | 7.0 | 0.00 | 0.00 | 0.00 | 41 | 1010.5 |
| 20260503203559 | 63 | 243 | 9.6 | 23.5 | 0.00 | 0.00 | 0.00 | 41 | 1012.2 |
| 20260503203544 | 63 | 197 | 1.7 | 6.1 | 0.00 | 0.00 | 0.00 | 42 | 1010.6 |
| 20260503203111 | 63 | 236 | 11.3 | 24.3 | 0.00 | 0.00 | 0.00 | 41 | 1012.2 |
| 20260503203049 | 63 | 232 | 3.5 | 7.8 | 0.00 | 0.00 | 0.00 | 41 | 1010.7 |
| 20260503202600 | 63 | 198 | 11.3 | 24.3 | 0.00 | 0.00 | 0.00 | 40 | 1012.3 |
| 20260503202545 | 63 | 194 | 2.6 | 7.0 | 0.00 | 0.00 | 0.00 | 41 | 1010.8 |
| 20260503202059 | 63 | 194 | 10.4 | 19.1 | 0.00 | 0.00 | 0.00 | 42 | 1012.3 |
| 20260503202043 | 63 | 205 | 2.6 | 7.0 | 0.00 | 0.00 | 0.00 | 42 | 1010.8 |
| 20260503201606 | 63 | 238 | 9.6 | 22.6 | 0.00 | 0.00 | 0.00 | 42 | 1012.3 |
| 20260503201542 | 63 | 221 | 0.0 | 7.0 | 0.00 | 0.00 | 0.00 | 42 | 1010.8 |
| 20260503201058 | 63 | 240 | 8.7 | 22.6 | 0.00 | 0.00 | 0.00 | 42 | 1012.3 |
| 20260503201044 | 63 | 227 | 0.9 | 9.6 | 0.00 | 0.00 | 0.00 | 44 | 1010.8 |
| 20260503200602 | 63 | 196 | 11.3 | 22.6 | 0.00 | 0.00 | 0.00 | 41 | 1012.4 |
| 20260503200541 | 63 | 255 | 3.5 | 9.6 | 0.00 | 0.00 | 0.00 | 42 | 1011.0 |
| 20260503200105 | 63 | 197 | 10.4 | 23.5 | 0.00 | 0.00 | 0.00 | 42 | 1012.5 |
| 20260503200054 | 63 | 213 | 3.5 | 8.7 | 0.00 | 0.00 | 0.00 | 43 | 1010.9 |
| 20260503195559 | 63 | 225 | 13.0 | 23.5 | 0.00 | 0.00 | 0.00 | 40 | 1012.5 |
| 20260503195540 | 63 | 202 | 4.3 | 8.7 | 0.00 | 0.00 | 0.00 | 41 | 1011.0 |
| 20260503195058 | 63 | 236 | 11.3 | 23.5 | 0.00 | 0.00 | 0.00 | 40 | 1012.5 |
| 20260503195039 | 63 | 245 | 2.6 | 7.8 | 0.00 | 0.00 | 0.00 | 41 | 1011.1 |
| 20260503194558 | 63 | 228 | 10.4 | 20.0 | 0.00 | 0.00 | 0.00 | 41 | 1012.4 |
| 20260503194539 | 63 | 230 | 1.7 | 7.0 | 0.00 | 0.00 | 0.00 | 42 | 1011.0 |
| 20260503194103 | 63 | 223 | 9.6 | 19.1 | 0.00 | 0.00 | 0.00 | 41 | 1012.6 |
| 20260503194038 | 63 | 236 | 3.5 | 7.8 | 0.00 | 0.00 | 0.00 | 42 | 1011.1 |
| 20260503193558 | 63 | 209 | 9.6 | 15.6 | 0.00 | 0.00 | 0.00 | 42 | 1012.7 |
| 20260503193537 | 64 | 238 | 3.5 | 7.8 | 0.00 | 0.00 | 0.00 | 44 | 1011.2 |
| 20260503193111 | 64 | 235 | 8.7 | 19.1 | 0.00 | 0.00 | 0.00 | 40 | 1012.7 |
| 20260503193040 | 64 | 265 | 2.6 | 7.0 | 0.00 | 0.00 | 0.00 | 41 | 1011.2 |
| 20260503192559 | 64 | 217 | 8.7 | 19.1 | 0.00 | 0.00 | 0.00 | 41 | 1012.9 |
| 20260503192536 | 64 | 215 | 2.6 | 9.6 | 0.00 | 0.00 | 0.00 | 41 | 1011.4 |
| 20260503192100 | 64 | 244 | 8.7 | 17.4 | 0.00 | 0.00 | 0.00 | 42 | 1012.9 |
| 20260503192035 | 64 | 246 | 3.5 | 10.4 | 0.00 | 0.00 | 0.00 | 43 | 1011.6 |
| 20260503191608 | 64 | 238 | 7.0 | 17.4 | 0.00 | 0.00 | 0.00 | 41 | 1013.0 |
| 20260503191541 | 63 | 263 | 3.5 | 10.4 | 0.00 | 0.00 | 0.00 | 41 | 1011.5 |
| 20260503191152 | 64 | 243 | 3.5 | 7.8 | 0.00 | 0.00 | 0.00 | 39 | 1011.7 |
| 20260503191100 | 64 | 231 | 6.1 | 17.4 | 0.00 | 0.00 | 0.00 | 39 | 1013.2 |
| 20260503190559 | 64 | 220 | 8.7 | 18.2 | 0.00 | 0.00 | 0.00 | 42 | 1013.3 |
| 20260503190532 | 64 | 234 | 0.9 | 6.1 | 0.00 | 0.00 | 0.00 | 42 | 1011.8 |
| 20260503190100 | 63 | 224 | 9.6 | 18.2 | 0.00 | 0.00 | 0.00 | 41 | 1013.4 |
| 20260503190032 | 63 | 246 | 1.7 | 6.1 | 0.00 | 0.00 | 0.00 | 42 | 1011.9 |
| 20260503185559 | 63 | 218 | 9.6 | 17.4 | 0.00 | 0.00 | 0.00 | 40 | 1013.4 |
| 20260503185531 | 63 | 221 | 1.7 | 7.8 | 0.00 | 0.00 | 0.00 | 40 | 1012.0 |
| 20260503185102 | 64 | 247 | 7.8 | 20.0 | 0.00 | 0.00 | 0.00 | 44 | 1013.5 |
| 20260503185032 | 64 | 256 | 1.7 | 7.8 | 0.00 | 0.00 | 0.00 | 42 | 1012.0 |
| 20260503184939 | 63 | 229 | 9.6 | 25.2 | 0.00 | 0.00 | 0.00 | 41 | 1013.5 |
| 20260503184539 | 63 | 246 | 0.0 | 9.6 | 0.00 | 0.00 | 0.00 | 40 | 1012.0 |
| 20260503184057 | 63 | 246 | 10.4 | 25.2 | 0.00 | 0.00 | 0.00 | 40 | 1013.7 |
| 20260503184030 | 63 | 225 | 2.6 | 10.4 | 0.00 | 0.00 | 0.00 | 40 | 1012.2 |
| 20260503183559 | 63 | 242 | 10.4 | 25.2 | 0.00 | 0.00 | 0.00 | 45 | 1013.6 |
| 20260503183530 | 63 | 290 | 1.7 | 10.4 | 0.00 | 0.00 | 0.00 | 45 | 1012.1 |
| 20260503183109 | 63 | 209 | 10.4 | 25.2 | 0.00 | 0.00 | 0.00 | 43 | 1013.7 |
| 20260503183028 | 63 | 258 | 2.6 | 8.7 | 0.00 | 0.00 | 0.00 | 43 | 1012.2 |
| 20260503182603 | 62 | 190 | 10.4 | 22.6 | 0.00 | 0.00 | 0.00 | 42 | 1013.8 |
| 20260503182528 | 62 | 184 | 0.0 | 8.7 | 0.00 | 0.00 | 0.00 | 42 | 1012.3 |
| 20260503182059 | 63 | 220 | 4.3 | 22.6 | 0.00 | 0.00 | 0.00 | 45 | 1014.0 |
| 20260503182032 | 63 | 265 | 0.9 | 7.8 | 0.00 | 0.00 | 0.00 | 44 | 1012.4 |
| 20260503181611 | 63 | 226 | 9.6 | 21.7 | 0.00 | 0.00 | 0.00 | 42 | 1013.9 |
| 20260503181527 | 63 | 237 | 0.9 | 7.0 | 0.00 | 0.00 | 0.00 | 41 | 1012.4 |
| 20260503181058 | 63 | 216 | 9.6 | 21.7 | 0.00 | 0.00 | 0.00 | 42 | 1014.0 |
| 20260503181027 | 63 | 240 | 0.0 | 9.6 | 0.00 | 0.00 | 0.00 | 44 | 1012.5 |
| 20260503180559 | 62 | 238 | 9.6 | 20.9 | 0.00 | 0.00 | 0.00 | 42 | 1014.1 |
| 20260503180527 | 62 | 260 | 0.0 | 9.6 | 0.00 | 0.00 | 0.00 | 42 | 1012.5 |
| 20260503180100 | 63 | 232 | 12.2 | 20.9 | 0.00 | 0.00 | 0.00 | 40 | 1014.1 |
| 20260503180042 | 63 | 228 | 0.0 | 7.8 | 0.00 | 0.00 | 0.00 | 41 | 1012.6 |
| 20260503175601 | 64 | 221 | 7.0 | 20.9 | 0.00 | 0.00 | 0.00 | 44 | 1014.3 |
| 20260503175525 | 64 | 239 | 0.0 | 7.8 | 0.00 | 0.00 | 0.00 | 44 | 1012.7 |
| 20260503175104 | 63 | 221 | 7.0 | 20.9 | 0.00 | 0.00 | 0.00 | 42 | 1014.2 |
| 20260503175022 | 63 | 236 | 0.0 | 7.8 | 0.00 | 0.00 | 0.00 | 43 | 1012.7 |
| 20260503174603 | 63 | 264 | 8.7 | 20.9 | 0.00 | 0.00 | 0.00 | 43 | 1014.4 |
| 20260503174526 | 63 | 275 | 1.7 | 7.0 | 0.00 | 0.00 | 0.00 | 45 | 1012.9 |
| 20260503174101 | 62 | 232 | 10.4 | 17.4 | 0.00 | 0.00 | 0.00 | 44 | 1014.3 |
| 20260503174021 | 62 | 251 | 0.0 | 4.3 | 0.00 | 0.00 | 0.00 | 42 | 1012.8 |
| 20260503173600 | 63 | 219 | 6.1 | 18.2 | 0.00 | 0.00 | 0.00 | 46 | 1014.5 |
| 20260503173520 | 63 | 252 | 0.0 | 6.1 | 0.00 | 0.00 | 0.00 | 46 | 1012.9 |
| 20260503173103 | 62 | 222 | 7.0 | 18.2 | 0.00 | 0.00 | 0.00 | 46 | 1014.5 |
| 20260503173025 | 62 | 237 | 0.9 | 8.7 | 0.00 | 0.00 | 0.00 | 49 | 1012.9 |
| 20260503172600 | 62 | 227 | 5.2 | 23.5 | 0.00 | 0.00 | 0.00 | 45 | 1014.6 |
| 20260503172517 | 62 | 263 | 1.7 | 8.7 | 0.00 | 0.00 | 0.00 | 45 | 1013.0 |
| 20260503172100 | 62 | 232 | 9.6 | 23.5 | 0.00 | 0.00 | 0.00 | 46 | 1014.7 |
| 20260503172018 | 62 | 254 | 0.0 | 3.5 | 0.00 | 0.00 | 0.00 | 49 | 1013.2 |
| 20260503171559 | 62 | 207 | 7.8 | 23.5 | 0.00 | 0.00 | 0.00 | 45 | 1014.7 |
| 20260503171516 | 63 | 239 | 0.0 | 6.1 | 0.00 | 0.00 | 0.00 | 50 | 1013.1 |
| 20260503171100 | 62 | 241 | 5.2 | 16.5 | 0.00 | 0.00 | 0.00 | 49 | 1014.9 |
| 20260503171014 | 62 | 273 | 0.0 | 7.8 | 0.00 | 0.00 | 0.00 | 52 | 1013.3 |
| 20260503170558 | 61 | 218 | 5.2 | 19.1 | 0.00 | 0.00 | 0.00 | 48 | 1014.9 |
| 20260503170513 | 61 | 242 | 1.7 | 7.8 | 0.00 | 0.00 | 0.00 | 49 | 1013.4 |
| 20260503150558 | 56 | 229 | 6.1 | 14.8 | 0.00 | 0.00 | 0.00 | 57 | 1016.2 |
| 20260503150542 | 56 | 240 | 0.9 | 3.5 | 0.00 | 0.00 | 0.00 | 58 | 1014.6 |
| 20260503150126 | 56 | 234 | 7.0 | 14.8 | 0.00 | 0.00 | 0.00 | 57 | 1016.1 |
| 20260503150122 | 55 | 242 | 6.1 | 16.5 | 0.00 | 0.00 | 0.00 | 59 | 1016.3 |
| 20260503131103 | 48 | 229 | 7.0 | 13.9 | 0.00 | 0.00 | 0.00 | 63 | 1016.5 |
| 20260503131007 | 48 | 263 | 0.0 | 1.7 | 0.00 | 0.00 | 0.00 | 65 | 1015.0 |
| 20260503130557 | 48 | 218 | 6.1 | 13.9 | 0.00 | 0.00 | 0.00 | 64 | 1016.4 |
| 20260503130506 | 48 | 234 | 0.0 | 2.6 | 0.00 | 0.00 | 0.00 | 64 | 1014.9 |
| 20260503110559 | 39 | 217 | 4.3 | 7.8 | 0.00 | 0.00 | 0.00 | 74 | 1016.5 |
| 20260503110538 | 39 | 201 | 0.0 | 0.0 | 0.00 | 0.00 | 0.00 | 75 | 1015.1 |
| 20260503090105 | 38 | 201 | 2.6 | 6.1 | 0.00 | 0.00 | 0.00 | 76 | 1016.6 |
| 20260503081630 | 39 | 241 | 1.7 | 4.3 | 0.00 | 0.00 | 0.00 | 76 | 1016.7 |
| 20260503081535 | 39 | 244 | 0.0 | 0.0 | 0.00 | 0.00 | 0.00 | 77 | 1015.3 |
| 20260503081102 | 39 | 218 | 1.7 | 6.1 | 0.00 | 0.00 | 0.00 | 76 | 1016.8 |
| 20260503081020 | 39 | 244 | 0.0 | 0.0 | 0.00 | 0.00 | 0.00 | 77 | 1015.4 |
| 20260503080601 | 39 | 207 | 2.6 | 6.1 | 0.00 | 0.00 | 0.00 | 76 | 1016.8 |
| 20260503080519 | 39 | 244 | 0.0 | 0.0 | 0.00 | 0.00 | 0.00 | 76 | 1015.4 |
| 20260503080117 | 39 | 209 | 1.7 | 6.1 | 0.00 | 0.00 | 0.00 | 76 | 1016.8 |
| 20260503072601 | 40 | 226 | 2.6 | 7.0 | 0.00 | 0.00 | 0.00 | 75 | 1016.8 |
| 20260503072516 | 40 | 244 | 0.0 | 0.0 | 0.00 | 0.00 | 0.00 | 75 | 1015.4 |
| 20260503072058 | 40 | 234 | 2.6 | 7.0 | 0.00 | 0.00 | 0.00 | 74 | 1016.7 |
| 20260503072014 | 40 | 244 | 0.0 | 0.0 | 0.00 | 0.00 | 0.00 | 74 | 1015.4 |
| 20260503071601 | 40 | 233 | 2.6 | 6.1 | 0.00 | 0.00 | 0.00 | 74 | 1016.7 |
| 20260503071513 | 40 | 244 | 0.0 | 0.0 | 0.00 | 0.00 | 0.00 | 75 | 1015.4 |
| 20260503071101 | 40 | 224 | 2.6 | 6.1 | 0.00 | 0.00 | 0.00 | 74 | 1016.8 |
| 20260503071013 | 40 | 244 | 0.0 | 0.0 | 0.00 | 0.00 | 0.00 | 75 | 1015.4 |
| 20260503070602 | 40 | 206 | 2.6 | 7.8 | 0.00 | 0.00 | 0.00 | 74 | 1016.8 |
| 20260503070513 | 40 | 244 | 0.0 | 0.0 | 0.00 | 0.00 | 0.00 | 75 | 1015.5 |
| 20260503070106 | 40 | 236 | 3.5 | 7.8 | 0.00 | 0.00 | 0.00 | 74 | 1016.7 |
| 20260503060104 | 42 | 215 | 3.5 | 7.0 | 0.00 | 0.00 | 0.00 | 72 | 1017.2 |
| 20260503055059 | 42 | 231 | 3.5 | 7.0 | 0.00 | 0.00 | 0.00 | 72 | 1017.2 |
| 20260503055004 | 42 | 244 | 0.0 | 0.0 | 0.00 | 0.00 | 0.00 | 72 | 1015.7 |
| 20260503054604 | 42 | 215 | 2.6 | 7.0 | 0.00 | 0.00 | 0.00 | 71 | 1017.2 |
| 20260503054509 | 42 | 244 | 0.0 | 0.0 | 0.00 | 0.00 | 0.00 | 72 | 1015.7 |
| 20260503054100 | 42 | 215 | 2.6 | 7.0 | 0.00 | 0.00 | 0.00 | 71 | 1017.3 |
| 20260503054002 | 42 | 244 | 0.0 | 0.9 | 0.00 | 0.00 | 0.00 | 72 | 1015.8 |
| 20260503053558 | 42 | 226 | 2.6 | 7.8 | 0.00 | 0.00 | 0.00 | 71 | 1017.2 |
| 20260503053510 | 42 | 244 | 0.0 | 0.9 | 0.00 | 0.00 | 0.00 | 72 | 1015.8 |
| 20260503053101 | 42 | 296 | 0.0 | 0.0 | 0.00 | 0.00 | 0.00 | 71 | 1015.8 |
| 20260503053058 | 42 | 231 | 3.5 | 7.8 | 0.00 | 0.00 | 0.00 | 70 | 1017.2 |
| 20260503052559 | 42 | 297 | 0.0 | 0.0 | 0.00 | 0.00 | 0.00 | 71 | 1015.9 |
| 20260503052556 | 42 | 217 | 3.5 | 7.8 | 0.00 | 0.00 | 0.00 | 71 | 1017.2 |
| 20260503052103 | 42 | 297 | 0.0 | 0.0 | 0.00 | 0.00 | 0.00 | 71 | 1015.8 |
| 20260503052057 | 42 | 234 | 2.6 | 7.8 | 0.00 | 0.00 | 0.00 | 71 | 1017.3 |
| 20260503051559 | 42 | 232 | 2.6 | 7.0 | 0.00 | 0.00 | 0.00 | 71 | 1017.2 |
| 20260503051058 | 42 | 297 | 0.0 | 0.0 | 0.00 | 0.00 | 0.00 | 72 | 1015.9 |
| 20260503050558 | 42 | 226 | 2.6 | 7.0 | 0.00 | 0.00 | 0.00 | 72 | 1017.2 |
| 20260503050100 | 42 | 227 | 2.6 | 5.2 | 0.00 | 0.00 | 0.00 | 72 | 1017.3 |
| 20260503050058 | 42 | 297 | 0.0 | 0.0 | 0.00 | 0.00 | 0.00 | 72 | 1016.1 |
| 20260503045559 | 42 | 223 | 2.6 | 7.0 | 0.00 | 0.00 | 0.00 | 71 | 1017.3 |
| 20260503045557 | 42 | 297 | 0.0 | 0.0 | 0.00 | 0.00 | 0.00 | 72 | 1016.1 |
| 20260503045059 | 42 | 297 | 0.0 | 0.0 | 0.00 | 0.00 | 0.00 | 71 | 1016.1 |
| 20260503044611 | 42 | 234 | 2.6 | 7.0 | 0.00 | 0.00 | 0.00 | 71 | 1017.2 |
| 20260503044608 | 42 | 297 | 0.0 | 0.0 | 0.00 | 0.00 | 0.00 | 72 | 1016.1 |
| 20260503044057 | 43 | 229 | 1.7 | 4.3 | 0.00 | 0.00 | 0.00 | 70 | 1017.3 |
| 20260503043558 | 43 | 230 | 1.7 | 6.1 | 0.00 | 0.00 | 0.00 | 71 | 1017.3 |
| 20260503043554 | 43 | 297 | 0.0 | 0.0 | 0.00 | 0.00 | 0.00 | 71 | 1015.9 |
| 20260503043102 | 43 | 233 | 1.7 | 6.1 | 0.00 | 0.00 | 0.00 | 70 | 1017.3 |
| 20260503043058 | 43 | 297 | 0.0 | 0.0 | 0.00 | 0.00 | 0.00 | 71 | 1015.9 |
| 20260503042558 | 43 | 225 | 1.7 | 5.2 | 0.00 | 0.00 | 0.00 | 70 | 1017.3 |
| 20260503042552 | 43 | 297 | 0.0 | 0.0 | 0.00 | 0.00 | 0.00 | 70 | 1015.9 |
| 20260503042057 | 43 | 217 | 1.7 | 3.5 | 0.00 | 0.00 | 0.00 | 70 | 1017.3 |
| 20260503042052 | 43 | 297 | 0.0 | 0.0 | 0.00 | 0.00 | 0.00 | 70 | 1016.0 |
| 20260503041558 | 43 | 223 | 1.7 | 3.5 | 0.00 | 0.00 | 0.00 | 70 | 1017.3 |
| 20260503041551 | 43 | 297 | 0.0 | 0.0 | 0.00 | 0.00 | 0.00 | 70 | 1016.0 |
| 20260503041058 | 43 | 217 | 1.7 | 4.3 | 0.00 | 0.00 | 0.00 | 69 | 1017.3 |
| 20260503041051 | 43 | 297 | 0.0 | 0.0 | 0.00 | 0.00 | 0.00 | 70 | 1016.1 |
| 20260503040557 | 43 | 224 | 1.7 | 4.3 | 0.00 | 0.00 | 0.00 | 69 | 1017.3 |
| 20260503040551 | 43 | 297 | 0.0 | 0.0 | 0.00 | 0.00 | 0.00 | 69 | 1016.0 |
| 20260503040052 | 43 | 297 | 0.0 | 0.0 | 0.00 | 0.00 | 0.00 | 69 | 1016.1 |
| 20260503035557 | 43 | 241 | 1.7 | 4.3 | 0.00 | 0.00 | 0.00 | 68 | 1017.5 |
| 20260503035546 | 43 | 297 | 0.0 | 0.0 | 0.00 | 0.00 | 0.00 | 69 | 1016.2 |
| 20260503035059 | 43 | 227 | 0.9 | 4.3 | 0.00 | 0.00 | 0.00 | 68 | 1017.4 |
| 20260503035046 | 43 | 297 | 0.0 | 0.0 | 0.00 | 0.00 | 0.00 | 69 | 1016.2 |
| 20260503034558 | 43 | 226 | 1.7 | 3.5 | 0.00 | 0.00 | 0.00 | 68 | 1017.4 |
| 20260503034100 | 43 | 234 | 1.7 | 6.1 | 0.00 | 0.00 | 0.00 | 68 | 1017.4 |
| 20260503034046 | 43 | 297 | 0.0 | 0.0 | 0.00 | 0.00 | 0.00 | 68 | 1016.1 |
| 20260503033558 | 44 | 223 | 1.7 | 6.1 | 0.00 | 0.00 | 0.00 | 67 | 1017.4 |
| 20260503033545 | 44 | 297 | 0.0 | 0.0 | 0.00 | 0.00 | 0.00 | 68 | 1016.1 |
| 20260503033138 | 44 | 219 | 1.7 | 6.1 | 0.00 | 0.00 | 0.00 | 67 | 1017.4 |
| 20260503033045 | 44 | 297 | 0.0 | 0.0 | 0.00 | 0.00 | 0.00 | 68 | 1016.1 |
| 20260503032558 | 44 | 244 | 1.7 | 6.1 | 0.00 | 0.00 | 0.00 | 67 | 1017.5 |
| 20260503032545 | 44 | 297 | 0.0 | 0.0 | 0.00 | 0.00 | 0.00 | 67 | 1016.1 |
| 20260503032100 | 44 | 231 | 1.7 | 6.1 | 0.00 | 0.00 | 0.00 | 67 | 1017.5 |
| 20260503032045 | 44 | 297 | 0.0 | 0.0 | 0.00 | 0.00 | 0.00 | 67 | 1016.2 |
| 20260503031602 | 44 | 234 | 1.7 | 6.1 | 0.00 | 0.00 | 0.00 | 67 | 1017.4 |
| 20260503031545 | 44 | 297 | 0.0 | 0.0 | 0.00 | 0.00 | 0.00 | 67 | 1016.1 |
| 20260503031100 | 45 | 234 | 1.7 | 6.1 | 0.00 | 0.00 | 0.00 | 66 | 1017.5 |
| 20260503031045 | 45 | 297 | 0.0 | 0.0 | 0.00 | 0.00 | 0.00 | 67 | 1016.1 |
| 20260503030603 | 45 | 240 | 1.7 | 5.2 | 0.00 | 0.00 | 0.00 | 66 | 1017.5 |
| 20260503030544 | 45 | 297 | 0.0 | 0.0 | 0.00 | 0.00 | 0.00 | 67 | 1016.2 |
| 20260503030110 | 45 | 221 | 1.7 | 4.3 | 0.00 | 0.00 | 0.00 | 67 | 1017.6 |
| 20260503030106 | 45 | 297 | 0.0 | 0.0 | 0.00 | 0.00 | 0.00 | 67 | 1016.2 |
| 20260503025559 | 45 | 240 | 0.9 | 3.5 | 0.00 | 0.00 | 0.00 | 67 | 1017.5 |
| 20260503025546 | 45 | 297 | 0.0 | 0.0 | 0.00 | 0.00 | 0.00 | 67 | 1016.3 |
| 20260503025059 | 45 | 236 | 1.7 | 3.5 | 0.00 | 0.00 | 0.00 | 66 | 1017.5 |
| 20260503025047 | 45 | 297 | 0.0 | 0.0 | 0.00 | 0.00 | 0.00 | 67 | 1016.3 |
| 20260503024624 | 45 | 235 | 1.7 | 3.5 | 0.00 | 0.00 | 0.00 | 66 | 1017.5 |
| 20260503024543 | 45 | 297 | 0.0 | 0.0 | 0.00 | 0.00 | 0.00 | 67 | 1016.4 |
| 20260503024103 | 45 | 237 | 0.9 | 3.5 | 0.00 | 0.00 | 0.00 | 66 | 1017.6 |
| 20260503024044 | 45 | 297 | 0.0 | 0.0 | 0.00 | 0.00 | 0.00 | 67 | 1016.2 |
| 20260503023600 | 45 | 238 | 0.9 | 4.3 | 0.00 | 0.00 | 0.00 | 66 | 1017.6 |
| 20260503023546 | 45 | 297 | 0.0 | 0.0 | 0.00 | 0.00 | 0.00 | 66 | 1016.4 |
| 20260503023111 | 45 | 242 | 1.7 | 4.3 | 0.00 | 0.00 | 0.00 | 66 | 1017.7 |
| 20260503023044 | 45 | 297 | 0.0 | 0.0 | 0.00 | 0.00 | 0.00 | 66 | 1016.5 |
| 20260503022559 | 45 | 236 | 0.9 | 3.5 | 0.00 | 0.00 | 0.00 | 67 | 1017.7 |
| 20260503022542 | 45 | 297 | 0.0 | 0.0 | 0.00 | 0.00 | 0.00 | 67 | 1016.5 |
| 20260503022059 | 45 | 227 | 0.9 | 4.3 | 0.00 | 0.00 | 0.00 | 66 | 1017.8 |
| 20260503022043 | 45 | 297 | 0.0 | 0.0 | 0.00 | 0.00 | 0.00 | 66 | 1016.4 |
| 20260503021601 | 46 | 233 | 1.7 | 4.3 | 0.00 | 0.00 | 0.00 | 66 | 1017.7 |
| 20260503021543 | 46 | 297 | 0.0 | 0.0 | 0.00 | 0.00 | 0.00 | 66 | 1016.4 |
| 20260503021100 | 46 | 233 | 0.9 | 4.3 | 0.00 | 0.00 | 0.00 | 66 | 1017.7 |
| 20260503021042 | 46 | 297 | 0.0 | 0.0 | 0.00 | 0.00 | 0.00 | 66 | 1016.4 |
| 20260503020559 | 46 | 228 | 1.7 | 4.3 | 0.00 | 0.00 | 0.00 | 65 | 1017.7 |
| 20260503020542 | 46 | 297 | 0.0 | 0.0 | 0.00 | 0.00 | 0.00 | 65 | 1016.5 |
| 20260503020056 | 46 | 229 | 0.9 | 3.5 | 0.00 | 0.00 | 0.00 | 66 | 1017.7 |
| 20260503020041 | 46 | 297 | 0.0 | 0.0 | 0.00 | 0.01 | 0.00 | 66 | 1016.5 |
| 20260503015559 | 46 | 232 | 0.9 | 3.5 | 0.00 | 0.01 | 0.00 | 66 | 1017.6 |
| 20260503015542 | 46 | 297 | 0.0 | 0.0 | 0.00 | 0.01 | 0.00 | 67 | 1016.5 |
| 20260503015059 | 46 | 233 | 0.9 | 3.5 | 0.00 | 0.01 | 0.00 | 66 | 1017.7 |
| 20260503015041 | 46 | 297 | 0.0 | 0.0 | 0.00 | 0.01 | 0.00 | 67 | 1016.5 |
| 20260503014604 | 46 | 236 | 0.9 | 2.6 | 0.00 | 0.01 | 0.00 | 65 | 1017.6 |
| 20260503014556 | 46 | 297 | 0.0 | 0.0 | 0.00 | 0.01 | 0.00 | 66 | 1016.5 |
| 20260503014056 | 46 | 232 | 0.9 | 2.6 | 0.00 | 0.01 | 0.00 | 65 | 1017.6 |
| 20260503014039 | 46 | 297 | 0.0 | 0.0 | 0.00 | 0.01 | 0.00 | 66 | 1016.4 |
| 20260503013600 | 46 | 234 | 0.9 | 3.5 | 0.00 | 0.01 | 0.00 | 64 | 1017.5 |
| 20260503013539 | 46 | 297 | 0.0 | 0.0 | 0.00 | 0.01 | 0.00 | 65 | 1016.4 |
| 20260503013100 | 46 | 238 | 0.9 | 3.5 | 0.00 | 0.01 | 0.00 | 63 | 1017.5 |
| 20260503013039 | 46 | 297 | 0.0 | 0.0 | 0.00 | 0.01 | 0.00 | 64 | 1016.4 |
| 20260503012600 | 46 | 237 | 0.9 | 3.5 | 0.00 | 0.01 | 0.00 | 62 | 1017.5 |
| 20260503012539 | 46 | 297 | 0.0 | 0.0 | 0.00 | 0.01 | 0.00 | 63 | 1016.3 |
| 20260503012100 | 46 | 237 | 1.7 | 4.3 | 0.00 | 0.01 | 0.00 | 60 | 1017.4 |
| 20260503012041 | 46 | 297 | 0.0 | 0.0 | 0.00 | 0.01 | 0.00 | 59 | 1016.2 |
| 20260503011605 | 46 | 234 | 1.7 | 4.3 | 0.00 | 0.01 | 0.00 | 58 | 1017.4 |
| 20260503011547 | 46 | 297 | 0.0 | 0.0 | 0.00 | 0.01 | 0.00 | 59 | 1016.2 |
| 20260503011100 | 46 | 239 | 1.7 | 4.3 | 0.00 | 0.01 | 0.00 | 58 | 1017.4 |
| 20260503011038 | 46 | 297 | 0.0 | 0.0 | 0.00 | 0.01 | 0.00 | 58 | 1016.1 |
| 20260503010559 | 46 | 250 | 1.7 | 4.3 | 0.00 | 0.01 | 0.00 | 58 | 1017.3 |
| 20260503010538 | 46 | 297 | 0.0 | 0.0 | 0.00 | 0.01 | 0.00 | 58 | 1016.2 |
| 20260503010057 | 46 | 241 | 0.9 | 4.3 | 0.00 | 0.01 | 0.00 | 58 | 1017.3 |
| 20260503010038 | 46 | 297 | 0.0 | 0.0 | 0.00 | 0.06 | 0.00 | 59 | 1016.2 |
| 20260503005557 | 46 | 234 | 0.9 | 4.3 | 0.00 | 0.06 | 0.00 | 58 | 1017.3 |
| 20260503005540 | 46 | 297 | 0.0 | 0.0 | 0.00 | 0.06 | 0.00 | 58 | 1016.1 |
| 20260503005058 | 46 | 244 | 0.9 | 3.5 | 0.00 | 0.06 | 0.00 | 58 | 1017.4 |
| 20260503005038 | 46 | 297 | 0.0 | 0.0 | 0.00 | 0.06 | 0.00 | 58 | 1016.1 |
| 20260503004618 | 46 | 254 | 0.9 | 3.5 | 0.00 | 0.06 | 0.00 | 58 | 1017.4 |
| 20260503004539 | 46 | 297 | 0.0 | 0.0 | 0.00 | 0.06 | 0.00 | 60 | 1016.1 |
| 20260503004102 | 46 | 250 | 0.9 | 3.5 | 0.00 | 0.06 | 0.00 | 59 | 1017.4 |
| 20260503004037 | 46 | 297 | 0.0 | 0.0 | 0.00 | 0.06 | 0.00 | 59 | 1016.1 |
| 20260503003559 | 46 | 244 | 0.9 | 3.5 | 0.00 | 0.06 | 0.00 | 58 | 1017.3 |
| 20260503003537 | 46 | 297 | 0.0 | 0.0 | 0.00 | 0.06 | 0.00 | 59 | 1016.0 |
| 20260503003058 | 46 | 244 | 0.9 | 4.3 | 0.00 | 0.06 | 0.00 | 59 | 1017.4 |
| 20260503003046 | 46 | 297 | 0.0 | 0.0 | 0.00 | 0.06 | 0.00 | 59 | 1016.0 |
| 20260503002601 | 46 | 253 | 1.7 | 4.3 | 0.00 | 0.06 | 0.00 | 59 | 1017.3 |
| 20260503002539 | 46 | 297 | 0.0 | 0.0 | 0.00 | 0.06 | 0.00 | 59 | 1016.1 |
| 20260503002059 | 46 | 244 | 1.7 | 4.3 | 0.00 | 0.06 | 0.00 | 58 | 1017.3 |
| 20260503002039 | 46 | 297 | 0.0 | 0.0 | 0.00 | 0.06 | 0.00 | 59 | 1016.0 |
| 20260503001603 | 46 | 0 | 1.7 | 4.3 | 0.00 | 0.06 | 0.00 | 57 | 1017.3 |
| 20260503001536 | 46 | 297 | 0.0 | 0.0 | 0.00 | 0.06 | 0.00 | 58 | 1016.1 |
| 20260503001104 | 46 | 238 | 0.9 | 3.5 | 0.00 | 0.06 | 0.00 | 57 | 1017.3 |
| 20260503001039 | 46 | 297 | 0.0 | 0.0 | 0.00 | 0.06 | 0.00 | 58 | 1016.0 |
| 20260503000556 | 46 | 240 | 1.7 | 3.5 | 0.00 | 0.06 | 0.00 | 57 | 1017.3 |
| 20260503000536 | 46 | 297 | 0.0 | 0.0 | 0.00 | 0.06 | 0.00 | 58 | 1016.1 |
| 20260503000108 | 46 | 235 | 0.9 | 4.3 | 0.00 | 0.06 | 0.00 | 58 | 1017.3 |
| 20260503000036 | 46 | 297 | 0.0 | 0.0 | 0.00 | 0.07 | 0.00 | 58 | 1016.0 |
| 20260502235557 | 46 | 228 | 1.7 | 4.3 | 0.00 | 0.07 | 0.00 | 58 | 1017.3 |
| 20260502235535 | 46 | 297 | 0.0 | 0.0 | 0.00 | 0.07 | 0.00 | 58 | 1016.0 |
| 20260502235057 | 47 | 247 | 0.9 | 3.5 | 0.00 | 0.07 | 0.00 | 58 | 1017.4 |
| 20260502235035 | 47 | 297 | 0.0 | 0.0 | 0.00 | 0.07 | 0.00 | 59 | 1016.0 |
| 20260502234615 | 47 | 239 | 0.9 | 3.5 | 0.00 | 0.07 | 0.00 | 58 | 1017.4 |
| 20260502234535 | 47 | 297 | 0.0 | 0.0 | 0.00 | 0.07 | 0.00 | 58 | 1016.0 |
| 20260502234102 | 47 | 0 | 0.0 | 3.5 | 0.00 | 0.07 | 0.00 | 54 | 1017.3 |
| 20260502234035 | 47 | 297 | 0.0 | 0.0 | 0.00 | 0.07 | 0.00 | 54 | 1016.0 |
| 20260502233601 | 47 | 266 | 0.9 | 3.5 | 0.00 | 0.07 | 0.00 | 54 | 1017.3 |
| 20260502233534 | 47 | 297 | 0.0 | 0.0 | 0.00 | 0.07 | 0.00 | 56 | 1016.0 |
| 20260502233111 | 47 | 0 | 0.0 | 4.3 | 0.00 | 0.07 | 0.00 | 53 | 1017.4 |
| 20260502233035 | 47 | 297 | 0.0 | 0.0 | 0.00 | 0.07 | 0.00 | 55 | 1016.0 |
| 20260502232601 | 47 | 260 | 1.7 | 4.3 | 0.00 | 0.07 | 0.00 | 52 | 1017.3 |
| 20260502232534 | 47 | 297 | 0.0 | 0.0 | 0.00 | 0.07 | 0.00 | 52 | 1016.0 |
| 20260502232101 | 47 | 261 | 1.7 | 4.3 | 0.00 | 0.07 | 0.00 | 53 | 1017.3 |
| 20260502232034 | 47 | 297 | 0.0 | 1.7 | 0.00 | 0.07 | 0.00 | 53 | 1016.0 |
| 20260502231611 | 47 | 248 | 0.9 | 5.2 | 0.00 | 0.07 | 0.00 | 54 | 1017.4 |
| 20260502231534 | 47 | 297 | 0.0 | 1.7 | 0.00 | 0.07 | 0.00 | 55 | 1015.8 |
| 20260502231101 | 47 | 228 | 1.7 | 6.1 | 0.00 | 0.07 | 0.00 | 53 | 1017.4 |
| 20260502231034 | 47 | 297 | 0.0 | 0.0 | 0.00 | 0.07 | 0.00 | 54 | 1015.8 |
| 20260502230601 | 47 | 242 | 1.7 | 6.1 | 0.00 | 0.07 | 0.00 | 57 | 1017.4 |
| 20260502230536 | 47 | 297 | 0.0 | 0.0 | 0.00 | 0.07 | 0.00 | 56 | 1016.0 |
| 20260502230059 | 47 | 234 | 1.7 | 7.8 | 0.00 | 0.07 | 0.00 | 55 | 1017.4 |
| 20260502230034 | 47 | 297 | 0.0 | 0.0 | 0.00 | 0.07 | 0.00 | 55 | 1016.0 |
| 20260502225600 | 47 | 266 | 1.7 | 7.8 | 0.00 | 0.07 | 0.00 | 53 | 1017.5 |
| 20260502225533 | 47 | 297 | 0.0 | 0.0 | 0.00 | 0.07 | 0.00 | 53 | 1016.0 |